Wind_Speed
7 6 5 4 6 7 4 1 4 7 10 12 12 10 9 9 9 9 9 6 9 14 9 10 12 15 10 8 9 16 16 11 15 16 18 24 29 29 27 33 32 25 21
6 3 2 3 6 4 1 4 5 8 11 13 11 10 8 7 9 10 8 9 13 12 13 13 15 14 13 4 6 18 18 14 14 16 21 29 30 24 32 34 32 20 18
5 2 2 4 5 4 4 5 6 9 10 12 11 9 8 8 9 11 13 12 12 14 17 13 13 9 9 10 11 20 15 13 14 22 33 22 25 32 35 28 31 17 16
4 4 5 5 6 7 7 7 7 10 10 9 9 9 8 9 10 11 13 13 11 12 14 11 11 10 10 9 14 15 11 21 21 27 28 31 37 29 25 28 22 20 14
5 6 6 6 7 9 9 9 9 9 10 11 10 9 9 10 11 12 11 10 12 11 12 13 12 12 13 11 12 12 18 18 21 27 27 34 34 25 21 21 19 18 13
7 8 7 7 8 9 10 7 8 9 10 11 11 11 10 10 11 12 13 12 11 11 11 11 14 14 14 15 14 12 13 14 18 28 26 33 29 27 23 21 18 14 15
9 10 9 9 9 8 6 9 9 10 10 8 6 7 9 10 11 12 11 9 11 11 12 10 16 17 16 13 14 18 19 26 22 24 26 29 29 24 21 20 19 16 13
11 11 11 11 10 8 9 9 10 9 10 2 5 11 11 11 10 11 11 10 13 13 11 11 14 14 17 17 21 23 21 28 25 28 28 27 25 22 22 20 17 13 9
12 12 11 11 11 10 9 8 10 11 11 15 14 11 10 13 12 11 8 11 13 17 15 16 16 12 13 16 22 22 23 27 26 27 28 26 26 24 22 18 14 10 6
12 14 12 12 11 9 8 8 9 12 16 15 17 17 19 16 14 12 12 13 15 18 21 20 15 16 19 24 26 25 26 26 26 27 28 28 25 22 18 14 11 8 4
12 14 14 12 11 11 9 8 9 10 10 9 14 18 21 15 9 10 18 19 17 17 20 21 20 23 24 24 23 22 22 24 27 27 26 23 21 18 14 10 7 4 3
10 12 14 14 12 11 10 9 9 9 9 10 10 12 11 13 13 16 21 21 22 24 16 22 23 20 21 20 22 24 25 25 25 24 22 19 16 13 9 6 4 5 7
12 11 11 13 15 13 12 10 10 10 10 10 10 10 11 12 15 16 18 21 23 23 22 21 20 19 17 18 22 25 27 26 23 21 19 15 13 10 6 4 6 9 11
13 13 12 11 12 14 15 15 13 11 10 11 11 11 12 12 12 13 14 15 16 19 20 19 18 17 17 19 21 22 24 23 21 20 17 14 11 9 8 9 11 13 15
14 15 15 14 13 13 13 15 15 15 14 13 13 13 12 12 13 14 13 13 14 15 16 17 16 16 17 18 21 23 23 22 20 18 15 13 11 10 11 13 15 16 17
18 16 15 16 15 15 15 15 17 18 18 17 18 18 17 17 15 14 13 13 13 14 13 13 13 14 15 16 18 20 21 20 18 15 14 13 13 13 15 16 17 19 21
19 18 16 16 18 17 16 16 15 16 18 18 18 18 17 17 17 16 15 14 14 14 14 15 15 16 16 16 18 19 20 19 18 17 16 16 16 16 17 19 21 22 24
18 19 19 16 14 19 18 17 17 16 15 15 15 16 16 16 16 15 16 16 15 14 14 15 16 18 20 21 22 22 22 22 21 20 19 19 19 20 21 22 23 25 26
19 18 18 17 17 15 20 20 18 18 18 18 20 20 19 18 17 17 17 16 15 16 16 16 16 17 18 20 22 23 24 24 24 23 23 23 24 24 25 26 27 28 28
23 20 17 14 14 16 18 21 21 20 19 19 20 20 21 20 19 17 17 16 16 16 17 18 20 20 20 20 22 24 26 27 27 27 26 27 27 27 28 31 33 34 33
28 26 23 22 21 18 16 18 19 21 22 21 20 20 19 19 19 19 19 19 18 17 18 18 19 20 21 23 24 25 26 27 28 27 28 28 31 33 33 35 36 34 41
32 32 30 27 25 24 23 21 19 22 22 22 23 23 22 23 22 22 21 21 20 20 21 22 23 24 25 26 27 28 29 30 31 30 31 32 35 39 38 37 40 42 47
30 29 32 34 31 28 27 27 27 24 23 25 26 27 26 24 21 20 22 23 23 23 24 25 26 27 27 29 30 30 31 31 31 32 34 35 38 40 40 41 39 47 51
35 29 29 31 34 33 32 30 30 30 29 27 27 27 26 25 23 21 21 21 22 24 25 28 30 31 32 33 31 31 32 32 33 33 33 32 33 36 38 41 48 48 50
41 36 32 33 33 31 32 31 29 29 31 33 34 33 32 31 30 29 28 27 27 26 24 26 27 27 29 31 32 32 32 31 32 35 36 37 38 38 41 47 48 46 44
44 43 40 37 35 34 34 31 28 26 27 28 31 34 38 38 36 33 30 29 28 27 27 29 30 30 30 30 31 32 33 34 37 39 40 42 43 45 46 47 46 39 32
Wind_Direction
262 262 268 280 327 324 325 52 140 147 147 143 142 145 148 150 160 168 171 149 158 156 164 158 160 170 171 163 190 214 223 191 155 132 158 172 172 171 186 170 158 152 150
258 253 242 325 336 330 124 111 142 155 154 153 153 146 143 153 157 157 147 143 153 159 158 132 149 158 164 162 208 193 190 174 153 186 164 163 162 175 153 162 166 145 145
236 182 111 23 64 89 123 121 138 162 155 153 152 149 137 142 154 150 142 142 145 153 159 149 149 146 154 130 123 148 168 184 188 159 166 177 177 161 176 171 164 152 160
187 133 115 93 103 104 99 126 131 154 158 155 157 149 137 144 147 143 146 139 141 151 157 159 159 151 141 119 125 150 160 171 164 173 176 161 166 169 172 182 171 145 177
157 127 120 127 123 109 95 115 119 140 147 149 152 157 150 139 140 138 148 153 156 155 153 157 166 155 148 138 130 135 155 148 165 161 164 161 161 165 171 175 168 166 181
150 126 119 118 135 126 116 110 131 138 128 129 138 148 153 159 164 146 137 132 154 152 157 164 159 143 144 148 146 137 166 175 161 168 173 168 171 178 168 167 167 166 160
148 130 120 117 126 144 136 81 140 151 139 130 159 158 159 164 169 174 174 161 144 145 150 146 159 142 138 133 139 138 128 146 133 147 163 151 143 149 154 149 147 151 153
154 135 123 121 126 133 149 125 103 121 165 200 199 186 177 177 182 191 183 189 173 156 154 144 158 134 131 126 141 138 126 149 144 139 144 148 148 147 141 139 139 140 149
159 145 130 121 125 128 128 129 126 119 113 80 92 135 169 191 182 199 201 193 199 177 163 152 148 145 139 125 158 159 138 143 140 144 138 143 141 139 135 138 142 151 166
162 160 147 132 128 131 134 127 120 126 116 93 96 107 109 121 129 138 160 144 150 159 170 158 149 159 147 130 130 137 143 146 149 145 142 138 138 140 142 147 157 168 184
165 170 166 154 142 135 139 143 132 132 133 125 115 107 114 113 119 97 113 130 150 160 166 162 159 154 150 140 142 142 146 147 144 142 140 142 144 146 152 163 175 191 259
168 170 173 172 162 153 146 142 137 136 132 126 125 127 125 122 118 113 123 111 120 154 148 142 145 149 147 145 146 146 146 145 145 146 152 155 159 164 171 185 219 260 294
175 175 174 173 174 172 162 154 148 144 143 140 137 131 131 132 132 136 135 132 131 138 147 151 154 158 156 153 153 153 155 156 159 161 164 171 180 184 198 245 285 301 300
190 182 180 177 177 176 175 167 163 157 155 150 147 142 138 138 136 140 144 146 149 152 156 160 163 166 168 165 166 165 167 169 174 177 182 194 203 217 238 265 285 291 291
205 196 189 187 183 182 181 177 174 170 167 166 164 158 154 153 154 155 156 156 159 163 167 171 174 174 171 172 176 179 182 185 190 195 202 208 219 239 261 278 289 295 299
211 211 201 194 191 187 188 192 187 184 183 183 178 176 178 177 174 174 174 173 175 176 178 179 179 179 181 186 190 192 193 199 207 219 228 233 241 254 268 284 292 295 296
215 213 210 207 196 194 194 199 202 202 200 196 193 195 195 189 189 191 191 190 192 192 191 192 192 195 199 202 201 201 205 212 223 232 236 241 252 265 275 281 286 292 294
215 213 214 213 207 200 196 200 207 207 207 208 207 209 210 212 211 209 207 208 208 204 205 204 203 204 206 206 207 209 214 221 228 234 242 251 260 267 272 278 284 288 291
206 206 206 208 208 202 203 201 206 210 207 205 204 206 211 216 218 222 225 228 227 224 223 223 221 221 221 219 217 218 223 230 237 244 250 255 260 265 271 278 283 284 285
211 206 208 213 221 217 210 209 208 210 215 216 214 211 214 215 219 224 227 229 230 233 234 233 232 231 231 233 232 232 233 236 240 246 253 259 264 270 276 279 283 284 283
217 214 214 216 223 231 232 226 220 216 216 221 226 226 225 227 227 228 227 230 229 227 230 234 239 241 241 243 245 248 250 250 253 256 259 264 270 269 273 277 281 274 283
230 229 226 225 227 229 235 235 233 228 223 223 224 230 234 239 239 239 240 238 237 235 231 230 233 235 237 239 242 246 251 256 259 261 264 265 268 271 269 277 278 281 284
227 232 231 231 232 232 231 234 236 237 233 230 229 233 236 242 246 248 247 247 247 245 244 243 243 243 242 244 245 247 251 255 258 260 264 268 274 279 279 276 277 280 284
224 227 230 229 230 232 234 234 236 236 237 235 233 233 233 235 238 241 244 253 258 253 249 248 247 246 246 249 254 259 260 259 258 259 259 272 276 278 274 271 279 279 281
224 224 226 233 233 231 231 231 230 232 236 240 240 240 239 239 243 247 249 249 251 256 258 257 252 251 251 250 257 260 262 263 263 260 262 273 272 272 270 275 283 287 286
230 227 225 224 229 229 223 225 227 231 237 241 244 242 242 244 246 249 249 250 246 256 260 256 254 254 255 258 264 264 264 263 265 266 265 266 266 268 268 278 285 286 286
Height
3060 3060 3059 3058 3057 3056 3055 3053 3053 3054 3054 3055 3056 3058 3058 3060 3060 3062 3064 3066 3067 3069 3071 3072 3074 3076 3079 3081 3084 3086 3092 3095 3098 3102 3104 3108 3115 3120 3126 3133 3139 3145 3150
3059 3059 3058 3057 3056 3055 3055 3054 3054 3055 3055 3056 3057 3059 3061 3061 3062 3064 3066 3067 3069 3071 3073 3074 3076 3079 3080 3081 3082 3084 3092 3095 3100 3105 3108 3112 3118 3123 3129 3136 3141 3146 3149
3058 3058 3058 3057 3056 3055 3055 3055 3056 3057 3057 3058 3060 3061 3062 3063 3064 3067 3068 3069 3071 3073 3075 3077 3079 3081 3082 3084 3082 3086 3092 3096 3101 3105 3108 3114 3119 3126 3131 3136 3142 3146 3151
3057 3058 3058 3058 3057 3057 3056 3056 3057 3058 3059 3060 3061 3063 3064 3066 3067 3069 3071 3072 3074 3075 3078 3080 3082 3084 3085 3086 3087 3090 3093 3096 3102 3106 3111 3117 3122 3128 3133 3138 3144 3149 3151
3057 3058 3058 3058 3058 3059 3058 3058 3058 3060 3061 3061 3063 3064 3065 3067 3069 3071 3073 3074 3076 3078 3080 3082 3083 3086 3087 3089 3092 3093 3095 3099 3102 3106 3111 3117 3123 3128 3134 3139 3145 3149 3151
3057 3058 3059 3059 3060 3061 3061 3061 3061 3061 3062 3064 3065 3066 3067 3069 3071 3073 3075 3076 3078 3080 3082 3084 3086 3087 3089 3091 3094 3095 3097 3101 3104 3108 3114 3120 3125 3131 3136 3141 3145 3148 3152
3058 3058 3060 3060 3061 3063 3064 3063 3061 3063 3064 3065 3066 3067 3069 3070 3072 3074 3077 3079 3080 3082 3084 3086 3088 3090 3092 3094 3095 3097 3099 3103 3107 3112 3116 3121 3128 3134 3139 3142 3145 3151 3155
3058 3059 3061 3061 3062 3064 3066 3066 3066 3065 3066 3066 3064 3065 3068 3070 3072 3075 3077 3079 3082 3085 3087 3089 3091 3093 3095 3097 3097 3101 3104 3107 3111 3115 3120 3126 3132 3137 3141 3146 3150 3153 3155
3059 3060 3062 3063 3064 3066 3068 3068 3068 3068 3069 3067 3064 3065 3066 3068 3072 3074 3076 3078 3081 3085 3088 3091 3094 3096 3098 3100 3102 3105 3109 3113 3118 3121 3125 3130 3134 3140 3145 3149 3151 3154 3155
3059 3061 3062 3064 3066 3068 3070 3070 3070 3071 3071 3071 3070 3070 3070 3071 3073 3074 3076 3078 3081 3085 3088 3092 3095 3098 3101 3103 3106 3110 3114 3118 3122 3126 3129 3134 3140 3144 3147 3149 3152 3154 3154
3059 3061 3063 3065 3067 3068 3070 3072 3073 3073 3074 3075 3076 3076 3076 3076 3077 3077 3076 3080 3084 3087 3090 3093 3097 3100 3104 3107 3111 3114 3120 3123 3127 3131 3135 3139 3143 3146 3148 3150 3152 3153 3154
3059 3061 3063 3065 3068 3069 3071 3073 3074 3075 3076 3077 3078 3079 3080 3081 3082 3083 3083 3084 3086 3091 3095 3098 3102 3105 3109 3111 3114 3118 3123 3128 3132 3135 3138 3141 3144 3146 3148 3149 3151 3151 3151
3058 3060 3062 3064 3067 3070 3071 3073 3075 3076 3077 3079 3080 3081 3083 3084 3086 3087 3089 3091 3093 3096 3100 3103 3106 3109 3111 3114 3118 3122 3126 3130 3133 3137 3139 3142 3144 3146 3147 3148 3148 3148 3147
3058 3059 3061 3064 3066 3069 3071 3073 3075 3077 3079 3080 3082 3083 3085 3087 3088 3091 3093 3095 3097 3099 3102 3105 3108 3111 3114 3117 3120 3124 3127 3130 3133 3136 3139 3141 3143 3145 3146 3146 3146 3146 3145
3056 3058 3060 3062 3065 3068 3070 3073 3075 3076 3079 3081 3083 3084 3087 3089 3091 3093 3095 3097 3099 3102 3104 3107 3109 3111 3114 3118 3121 3124 3127 3131 3133 3136 3138 3140 3141 3142 3143 3143 3143 3142 3140
3054 3056 3059 3061 3063 3066 3069 3071 3074 3075 3077 3079 3082 3084 3086 3088 3091 3094 3096 3098 3100 3102 3105 3107 3110 3112 3115 3118 3121 3124 3127 3130 3132 3135 3136 3137 3138 3139 3139 3138 3137 3136 3135
3051 3055 3057 3059 3061 3064 3067 3070 3072 3075 3077 3079 3081 3083 3086 3088 3091 3094 3096 3098 3100 3102 3105 3107 3109 3111 3114 3116 3119 3122 3125 3127 3129 3131 3132 3133 3133 3134 3134 3133 3133 3131 3130
3049 3052 3054 3057 3059 3061 3064 3067 3070 3073 3076 3078 3081 3083 3085 3087 3089 3091 3094 3096 3098 3101 3103 3105 3108 3110 3112 3114 3117 3119 3121 3123 3125 3126 3127 3128 3128 3129 3128 3127 3126 3124 3122
3045 3048 3051 3054 3057 3059 3061 3063 3066 3070 3073 3075 3077 3080 3082 3084 3086 3088 3090 3093 3096 3098 3101 3103 3105 3107 3109 3110 3112 3114 3116 3117 3119 3120 3121 3122 3122 3122 3121 3120 3118 3116 3114
3042 3046 3049 3052 3054 3055 3057 3059 3062 3065 3068 3071 3074 3077 3078 3080 3082 3085 3087 3089 3092 3095 3097 3099 3100 3102 3104 3106 3108 3109 3110 3111 3112 3113 3114 3115 3115 3114 3113 3111 3110 3107 3106
3039 3042 3044 3047 3050 3052 3055 3056 3058 3060 3063 3066 3070 3072 3075 3077 3079 3080 3082 3084 3086 3089 3091 3093 3095 3097 3098 3099 3101 3102 3103 3105 3106 3106 3106 3106 3106 3105 3104 3102 3101 3098 3097
3032 3036 3039 3042 3045 3047 3050 3052 3054 3056 3058 3061 3064 3066 3069 3071 3073 3075 3076 3079 3081 3083 3085 3087 3088 3089 3090 3091 3093 3093 3095 3096 3097 3098 3099 3098 3097 3096 3095 3093 3091 3088 3085
3026 3029 3033 3036 3039 3042 3044 3047 3049 3051 3053 3055 3058 3060 3062 3064 3067 3069 3071 3073 3075 3077 3079 3080 3081 3082 3083 3083 3084 3085 3085 3086 3088 3089 3088 3088 3087 3086 3085 3082 3080 3077 3075
3020 3023 3026 3029 3031 3034 3037 3039 3042 3045 3047 3049 3051 3053 3055 3058 3060 3062 3065 3067 3067 3068 3069 3071 3072 3073 3074 3075 3076 3077 3077 3077 3078 3079 3078 3078 3077 3076 3074 3071 3068 3066 3064
3011 3015 3018 3022 3024 3028 3030 3032 3034 3036 3039 3041 3043 3045 3048 3050 3052 3054 3056 3058 3059 3060 3061 3061 3062 3064 3065 3066 3067 3068 3068 3068 3068 3068 3068 3068 3067 3065 3063 3060 3058 3055 3054
3001 3004 3006 3009 3015 3020 3023 3026 3027 3029 3031 3033 3035 3036 3038 3041 3044 3046 3048 3050 3051 3053 3054 3054 3054 3056 3057 3058 3058 3058 3059 3060 3060 3059 3058 3056 3055 3054 3052 3049 3048 3047 3046